Theta_e
302 303 304 305 304 304 308 312 312 311 311 311 311 311 310 310 310 310 309 307 303 308 309 311 312 312 311 309 312 315 318 317 319 321 322 321 321 322 322 326 326 327 327 327 326
301 301 301 301 302 303 305 311 313 312 312 311 311 311 310 310 309 308 304 304 303 304 306 311 310 310 307 309 311 312 317 326 322 319 319 320 320 319 320 320 325 326 326 325 327
299 299 300 300 301 303 304 307 311 313 312 312 311 311 310 309 310 312 317 311 303 306 308 311 310 308 307 310 310 310 314 318 318 319 320 321 319 318 321 321 320 319 322 321 322
299 299 299 301 302 303 305 306 308 313 313 312 311 310 310 310 316 319 317 316 305 308 312 311 308 309 308 308 309 311 313 315 316 317 317 321 325 320 322 321 319 319 319 319 319
300 302 302 301 303 305 306 307 308 308 311 311 311 311 310 311 313 314 317 313 306 310 309 307 306 310 310 309 310 310 312 314 316 316 316 316 316 318 318 318 318 318 318 318 317
307 306 306 304 304 305 308 308 308 308 311 311 311 311 310 313 313 319 313 308 309 313 309 306 308 309 313 310 310 310 312 313 315 316 316 315 314 316 318 318 318 317 315 317 317
308 309 310 310 307 307 308 308 308 309 312 312 311 311 313 312 314 313 312 310 310 311 308 307 308 314 313 313 309 311 312 311 314 314 314 315 315 317 318 318 317 316 314 316 316
310 311 311 311 310 308 308 308 308 310 313 312 311 312 313 313 314 314 312 311 311 309 309 310 310 312 312 312 313 313 311 311 312 314 315 315 317 316 316 316 316 315 314 316 316
312 312 311 311 310 308 308 308 309 312 313 312 311 312 317 317 318 315 315 313 311 309 309 313 314 312 315 314 310 312 313 314 315 314 316 315 315 315 315 315 314 314 313 316 315
312 311 311 310 310 309 308 309 310 314 314 313 314 315 316 320 313 312 314 315 313 312 313 315 313 314 312 311 312 313 315 315 315 315 315 314 313 315 315 314 316 315 314 315 315
310 310 310 310 310 309 307 309 317 317 316 317 320 318 319 320 317 312 312 319 313 314 316 316 315 315 315 314 314 315 315 316 316 315 315 315 315 315 314 315 315 314 315 315 315
310 310 310 310 309 308 307 307 315 314 316 318 319 318 319 319 320 310 311 318 314 313 314 313 315 314 315 316 317 316 316 316 315 315 315 316 316 313 314 314 313 314 314 315 315
309 310 310 310 309 313 310 310 314 313 315 317 321 320 320 319 320 311 314 317 316 314 314 313 315 316 317 316 317 316 316 315 316 317 316 316 315 316 316 316 314 314 314 315 315
309 310 310 308 313 310 312 318 316 315 317 321 321 320 319 318 318 318 316 317 316 314 313 313 315 316 318 318 317 315 315 317 317 317 315 315 315 314 315 317 317 316 314 313 315
309 309 309 308 308 310 317 317 316 315 331 326 320 318 316 316 318 318 317 316 317 315 315 316 316 317 317 317 316 316 316 316 317 317 316 315 314 313 316 317 316 315 317 315 313
309 309 308 308 309 316 317 317 316 324 334 327 319 318 317 317 318 317 319 316 316 316 316 316 316 316 316 316 316 317 316 313 313 312 314 314 316 314 316 316 316 320 317 316 314
309 309 308 307 311 318 315 313 321 327 327 328 320 318 318 318 318 319 319 318 317 317 317 317 317 317 317 317 314 314 312 313 314 314 315 315 317 314 316 320 321 318 315 314 313
308 308 311 313 316 314 316 318 326 330 328 325 321 319 320 319 319 319 318 318 316 317 317 317 319 320 320 320 320 319 314 314 317 317 316 321 323 322 322 321 318 318 315 315 313
308 309 311 317 318 315 316 326 330 329 322 322 321 321 324 323 325 320 318 318 318 315 317 317 319 319 322 321 320 321 321 315 319 321 322 320 320 319 322 322 320 318 314 315 315
307 308 313 319 320 316 319 325 327 323 320 321 322 323 325 326 326 326 323 322 321 317 315 319 322 321 322 321 321 321 321 324 318 324 325 324 323 323 324 322 320 319 317 316 314
307 314 321 320 319 315 320 322 325 323 321 321 321 322 321 322 323 326 326 323 321 321 317 318 318 321 320 322 321 324 321 322 321 321 322 323 321 321 323 321 321 318 318 317 314
305 315 320 318 316 315 318 322 323 325 321 320 319 320 320 320 321 321 323 322 320 319 321 318 318 322 322 319 318 318 322 324 329 327 320 317 320 320 320 320 317 317 316 314 312
306 309 315 318 320 319 320 324 324 327 320 318 320 319 318 319 319 321 321 319 317 318 318 316 319 321 319 319 320 322 322 324 326 327 330 329 325 319 319 316 313 313 312 311 311
306 316 315 315 317 319 321 324 322 322 320 318 319 317 317 317 315 319 319 318 317 318 321 315 317 319 319 320 319 323 319 320 323 326 329 328 324 321 317 314 313 312 311 310 309
307 317 312 318 317 314 317 319 321 321 318 317 318 318 318 317 314 316 315 315 316 320 316 313 317 318 318 319 319 318 317 316 319 322 324 321 321 320 315 314 313 312 310 310 309
312 313 312 313 314 316 317 319 319 318 317 318 318 317 315 315 315 315 314 314 316 313 316 313 316 317 319 318 317 316 316 317 317 316 316 319 320 316 314 312 311 309 310 309 308
310 311 311 311 313 314 315 316 316 315 315 314 314 314 313 312 311 311 310 311 312 314 314 314 314 315 316 315 314 313 314 317 317 317 316 318 317 313 312 311 310 308 308 308 307
Wind_Speed
20 20 20 21 22 22 21 19 17 15 14 14 12 12 12 14 15 16 17 22 24 10 9 2 23 18 12 4 3 2 2 6 5 5 2 9 7 8 4 5 5 4 8 7 14
18 19 20 21 22 22 21 18 18 17 15 14 12 11 11 13 15 21 41 33 25 21 21 7 11 10 3 5 3 5 9 17 6 6 5 7 4 9 6 6 6 5 3 15 16
20 19 20 21 21 22 22 21 18 18 16 14 12 10 10 9 6 11 3 12 29 21 21 8 7 7 6 3 6 6 10 12 5 9 15 6 15 3 3 4 4 5 4 3 4
20 21 21 21 22 23 23 24 21 18 17 14 11 8 8 5 3 4 12 13 28 24 19 7 5 6 6 8 6 5 6 7 8 13 2 10 20 14 6 10 2 3 4 6 5
21 22 23 23 23 23 25 26 26 24 17 14 10 5 3 3 11 11 11 14 29 26 14 6 6 6 7 9 4 7 8 10 17 18 11 13 16 11 8 6 5 4 6 3 6
23 24 25 25 27 27 30 31 28 27 19 12 8 4 3 5 5 6 5 26 25 21 11 10 8 10 5 8 10 9 18 17 12 17 12 9 9 7 9 7 8 4 7 5 6
24 26 28 28 29 31 37 30 26 21 16 8 7 6 4 17 2 6 11 21 23 23 7 24 23 1 3 3 11 8 6 9 16 13 9 10 8 7 8 8 9 9 8 7 8
25 27 28 31 33 35 35 30 23 14 10 4 6 5 8 8 7 12 12 14 22 20 25 20 23 7 5 3 4 6 6 6 7 15 10 10 14 8 10 9 11 10 9 7 7
27 28 31 31 34 37 37 30 13 7 3 6 5 4 9 13 9 20 23 12 23 19 22 15 10 8 1 2 4 4 3 4 5 8 5 8 7 11 10 8 9 10 10 8 6
29 30 31 32 34 36 32 22 0 1 5 5 6 3 8 4 8 15 24 24 6 7 5 7 4 3 3 4 3 4 3 4 5 3 4 8 9 13 10 9 10 9 9 9 9
30 32 32 33 33 34 25 5 2 1 5 10 7 5 6 15 18 10 17 9 6 4 4 1 3 4 8 6 7 4 4 6 6 7 8 11 16 22 14 6 8 9 8 8 8
31 31 30 34 39 28 14 4 6 5 6 18 15 10 15 6 4 5 11 5 5 5 4 5 5 11 8 8 7 7 8 9 8 6 6 3 6 6 5 6 8 9 9 10 8
31 31 32 35 32 4 5 14 7 8 1 6 8 6 6 8 5 8 9 5 3 4 5 6 8 10 9 8 8 10 9 8 9 4 1 2 6 4 4 4 8 7 9 10 14
33 32 32 40 3 10 7 13 22 6 3 5 4 5 5 4 3 5 12 7 3 7 5 6 13 10 9 9 10 8 9 8 4 4 4 4 5 4 5 6 5 9 8 11 12
34 32 36 27 14 5 6 19 16 3 3 6 4 7 5 7 1 3 9 4 8 8 5 6 2 4 4 2 7 10 8 5 3 2 2 4 3 7 1 6 10 9 10 13 12
36 38 35 7 9 15 15 20 5 3 3 4 5 5 4 3 2 5 3 6 2 2 2 5 3 3 3 7 4 3 3 6 5 4 1 5 5 4 3 5 6 5 7 8 7
42 42 28 11 7 3 17 3 4 2 4 3 6 6 8 7 4 3 5 5 6 2 2 2 2 3 2 5 5 8 6 3 2 2 5 5 2 7 6 7 7 6 8 9 8
44 39 11 16 12 7 5 4 3 7 6 2 3 11 8 4 5 10 6 3 3 4 1 3 5 2 3 4 3 2 6 5 4 4 4 3 4 4 3 5 9 8 7 8 9
41 20 12 10 8 10 4 2 5 4 2 3 4 6 6 4 6 3 8 9 7 8 7 3 4 0 10 3 2 4 3 4 5 3 4 4 5 6 6 7 8 9 7 4 7
32 12 8 10 10 7 3 5 5 1 2 3 0 5 3 5 2 7 1 4 2 2 6 3 2 2 4 5 2 2 3 3 3 4 4 4 4 5 3 4 7 7 5 6 5
7 4 6 16 16 4 3 6 4 4 2 3 2 4 4 2 5 7 7 5 5 3 5 3 4 4 4 1 2 5 4 3 2 4 5 2 5 6 5 4 1 7 5 6 8
7 3 3 20 2 2 3 4 1 7 4 2 3 3 4 3 3 4 3 2 4 2 4 3 4 2 6 5 2 2 2 2 3 4 1 4 6 6 5 6 5 8 9 9 8
4 4 9 9 2 3 5 7 4 8 2 2 3 3 2 3 4 4 5 3 7 4 2 2 2 2 7 4 5 6 4 4 3 2 5 3 4 2 9 4 8 7 8 7 9
2 3 3 3 2 2 3 3 4 3 4 5 4 6 5 4 5 2 2 7 4 4 7 6 2 5 5 2 2 3 5 2 6 2 1 4 5 12 9 7 7 7 7 7 7
2 3 2 3 3 6 2 3 3 3 3 6 6 6 5 3 3 3 4 6 5 5 4 4 3 2 3 6 4 6 8 8 10 10 9 9 11 13 3 4 4 5 6 7 7
1 3 4 4 6 5 4 2 2 2 4 4 6 5 6 4 3 2 3 3 1 6 3 4 2 3 3 6 6 8 12 12 13 15 15 9 14 5 3 3 5 6 5 6 6
5 5 1 4 6 4 5 2 2 3 7 6 7 4 6 3 3 2 3 3 3 2 2 1 3 3 4 4 7 8 6 10 7 5 6 7 3 3 3 6 6 6 4 4 7
Wind_Direction
345 344 345 347 348 347 342 337 329 316 308 305 303 301 302 299 296 288 249 233 228 199 149 118 203 220 214 240 200 235 247 232 219 177 225 322 325 318 285 4 101 118 129 174 132
340 340 341 341 342 344 343 337 328 325 307 302 306 305 309 306 301 268 259 247 228 213 226 243 178 182 176 205 212 169 214 235 235 259 152 292 287 304 15 30 354 103 133 162 159
338 338 338 337 338 338 338 336 331 320 313 299 301 308 310 321 312 244 322 238 214 203 204 230 184 151 185 174 204 205 215 229 328 276 289 283 308 231 317 310 135 347 122 19 91
337 336 337 336 335 334 334 333 332 322 314 296 295 304 307 299 292 249 302 273 184 188 208 186 175 176 162 186 210 229 203 203 230 250 326 310 293 299 265 264 189 275 277 146 125
341 339 337 336 335 335 333 330 328 327 310 299 283 289 327 236 252 307 317 161 169 188 187 160 169 169 172 191 200 213 247 211 225 239 230 237 239 247 267 283 321 350 346 163 132
343 342 340 336 333 333 330 324 322 323 309 281 259 240 191 255 264 282 171 154 172 189 191 171 201 209 196 208 180 208 225 236 232 230 230 214 244 205 233 258 289 282 279 248 170
342 341 339 336 333 330 330 325 319 322 317 248 224 214 236 243 220 185 173 172 181 189 174 210 221 251 173 263 222 225 229 236 242 236 226 198 239 225 221 240 259 267 248 245 225
338 337 337 336 333 331 330 320 322 315 305 200 199 204 248 258 270 216 188 198 197 201 205 207 218 210 186 246 352 172 154 221 252 215 227 163 252 235 232 220 240 256 262 241 245
332 332 333 332 332 332 329 319 319 322 244 163 179 194 265 305 194 229 208 207 197 210 224 252 236 195 32 75 8 22 221 198 275 184 206 181 246 242 236 210 224 237 242 205 221
329 328 330 328 331 330 325 323 223 112 113 160 263 295 269 249 219 221 204 211 181 201 249 216 51 76 36 82 215 232 232 272 239 296 245 259 252 249 225 204 216 221 202 201 206
329 330 328 327 328 331 324 352 109 115 232 202 191 248 281 338 194 200 226 169 165 123 155 259 86 223 233 201 220 236 252 266 276 258 220 238 252 237 219 191 203 208 212 215 211
330 329 329 329 328 322 296 250 226 123 289 227 238 248 268 273 289 193 215 145 126 171 173 37 224 227 223 242 237 249 255 263 283 223 200 330 305 224 207 202 203 208 224 226 228
332 333 334 331 332 1 231 250 285 326 304 280 191 221 230 163 226 197 157 172 145 190 183 175 228 221 228 251 247 245 233 259 240 250 74 29 331 1 312 248 192 231 227 221 215
334 334 335 333 325 329 253 329 334 172 56 271 194 250 175 186 287 186 189 152 173 201 212 225 253 240 243 245 240 236 203 209 243 296 253 128 269 297 260 272 284 274 247 226 226
333 332 333 327 288 283 286 323 331 123 18 159 151 157 145 151 295 163 173 167 190 224 118 247 64 357 274 200 295 225 231 229 210 204 57 333 90 274 261 307 283 294 295 266 210
333 329 331 329 236 261 319 332 346 55 283 184 136 157 120 236 278 163 120 95 128 108 167 232 245 228 229 285 256 219 179 46 50 102 311 261 148 266 270 270 289 319 347 317 146
332 326 317 256 226 272 326 41 59 213 328 243 181 163 177 189 207 189 171 162 167 97 294 336 275 258 228 325 5 55 53 5 327 327 214 229 324 234 294 325 283 142 72 62 84
331 328 303 250 264 279 354 60 198 239 222 265 116 169 187 145 238 181 162 174 271 129 342 135 316 115 6 61 346 318 133 148 214 213 256 344 225 248 90 335 12 55 80 106 132
331 328 293 254 221 225 79 121 224 230 344 0 346 162 190 113 32 196 179 200 199 170 170 197 248 9 70 73 66 326 59 200 113 1 80 252 284 344 10 51 33 45 46 118 164
327 314 269 202 189 146 93 231 246 252 109 30 33 23 115 156 120 38 46 167 128 113 141 241 257 6 14 29 128 116 288 20 18 158 213 271 228 210 46 33 13 50 48 353 338
318 331 289 162 166 67 197 238 299 267 140 111 140 82 59 85 118 151 228 30 57 32 81 104 107 289 48 137 282 13 334 360 92 139 174 189 245 183 128 123 344 309 290 226 227
344 320 53 158 70 205 207 219 262 264 204 215 102 107 114 53 71 32 78 59 72 38 58 330 125 148 240 258 253 101 360 111 176 270 254 158 261 279 22 336 319 319 320 344 35
315 268 310 190 212 261 285 298 263 293 228 108 69 74 96 89 98 57 47 62 66 72 97 340 38 42 339 10 15 85 83 109 85 160 212 238 270 338 319 314 353 52 44 26 50
313 310 304 45 137 336 347 270 330 224 62 75 111 69 72 74 53 78 51 36 32 94 118 81 113 158 194 183 200 289 343 184 168 200 197 238 272 291 323 47 14 25 11 39 56
234 268 325 330 323 331 300 290 291 322 54 35 39 74 126 87 42 75 51 11 16 46 48 95 170 338 300 297 304 279 274 258 236 220 219 244 233 253 191 65 11 355 32 31 18
297 3 341 284 298 323 312 264 21 36 25 49 94 94 79 104 129 145 82 86 52 355 71 356 162 87 285 282 307 307 276 267 262 251 256 247 255 25 59 32 7 3 57 27 356
322 323 110 298 320 351 326 245 113 98 47 82 113 97 61 109 109 178 167 172 172 96 80 98 110 84 254 18 339 299 247 249 246 281 228 236 97 2 357 360 326 358 42 350 331